星链-32179 (STARLINK-32179)

导读

STARLINK-32179是美国太空探索技术公司(SpaceX)星链星座的成员,于2024年8月28日由美国发射入轨。作为星链低轨卫星互联网项目的组成部分,它运行在近地轨道,承担全球宽带互联网接入任务,重点为偏远、基础设施匮乏地区提供低时延、高速的网络连接服务,助力星链实现全球覆盖目标,持续完善太空星座网络布局。

基本信息
目录编号:
60734
目录名称:
STARLINK-32179
国际标识:
2024-152Q
轨道中心:
EARTH
卫星名称:
星链-32179 (STARLINK-32179)
卫星全名:
星链-32179 (STARLINK-32179)
卫星状态:
在轨 (已飞行745 天)
发射日期:
2024-08-28 UTC
国别 :
美国 (US)
星等 :
--
该卫星已列入 空间交会检测服务 Space Conjunction Data Service (SCDS) ,当前飞行风险评估等级: 高风险
轨道信息
数据来源 国际轨道数据 AOE轨道数据
星历时间 2026-09-12T03:21:51+0800
10小时前
查看轨道信息
2026-09-10T22:00:00+0800
1天前
查看轨道信息
半长轴 6840.889km 6840.918km
偏心率 0.0001445 0.0001637
轨道倾角 53.159° 53.157°
近地点辐角 97.485° 71.493°
升交点赤经 121.994° 127.715°
平近点角 262.632° 6.438°
近地点 461.763km 461.661km
远地点 463.741km 463.901km
周期 93.849分钟 93.849分钟
每日圈数 15.343836 15.343741
详细信息
卫星平台:
Starlink v2.0 mini
运营商:
太空探索技术公司
运营商所在国:
美国
制造商(研发单位):
太空探索技术公司
制造商所在国:
美国
使用方式:
暂无
卫星简介
星链(Starlink)计划是由太空探索技术公司(SpaceX)提出的一个巨型低轨卫星互联网星座项目,计划在2019年至2024年间在太空搭建由约1.2万颗卫星组成的“星链”网络,其中1584颗将部署在地球上空550千米处的近地轨道,并从2020年开始工作。该卫星仍在工作。
2D轨道图
3D轨道图
轨道高度分析图
轨道倾角分析图
轨道综合分析图
查看轨道综合分析图
交会数据列表
事件ID 空间交会对象 最接近时刻(TCA) 交会距离 交会风险概率(CRP) 交会风险指数(CRI) 操作
CDM_260914-102306-073406-490721
2026-09-14T
10:23:27+0000
0.203 km
中距离
6.24978E-4 高风险 0.91
CDM_260912-231403-279106-073423
SEEDS (32791)
2026-09-12T
23:14:34+0000
1.164 km
极远距离
1.54565E-5 中风险 0.59
CDM_260913-094706-073406-962021
2026-09-13T
09:47:12+0000
1.699 km
极远距离
3.827292E-6 低风险 0.47
CDM_260912-094206-073406-263422
2026-09-12T
09:42:09+0000
2.456 km
极远距离
1.753574E-6 低风险 0.4
CDM_260914-101806-073406-824521
2026-09-14T
10:18:41+0000
1.582 km
极远距离
1.692068E-6 低风险 0.4
CDM_260912-162904-453106-073424
2026-09-12T
16:29:30+0000
2.812 km
极远距离
1.457736E-6 低风险 0.38
与全量物体交会距离演化趋势
与全量物体交会风险概率演化趋势